Wind_Speed
54 52 53 54 58 66 68 74 80 82 81 79 80 81 82 85 84 85 85 87 87 89 89 85 77 67 64 61 61 62 60 53 48 45 45 45 46 49
56 50 49 58 67 72 78 78 77 79 78 78 77 79 82 84 85 87 89 90 91 90 82 74 67 63 65 63 63 60 54 48 44 43 44 44 44 45
53 62 67 74 77 79 77 76 76 76 79 75 78 81 83 84 86 88 91 93 91 81 72 69 67 65 63 60 58 53 48 44 42 42 43 41 40 40
61 63 67 71 72 73 73 74 73 75 79 80 80 83 82 85 88 90 92 91 86 75 70 67 61 61 57 52 51 46 42 41 40 41 41 38 37 36
60 63 66 68 70 72 72 73 75 78 81 84 84 83 85 88 90 90 88 86 78 73 65 62 56 54 50 46 44 42 40 39 39 39 38 35 33 32
64 66 68 69 69 70 73 75 76 79 83 85 85 86 89 89 91 88 82 80 71 67 64 59 51 50 45 41 40 37 37 36 38 36 34 32 30 28
65 67 68 69 70 72 73 74 78 82 83 83 84 87 88 88 83 79 77 72 67 67 62 56 48 44 41 38 35 35 33 33 33 33 33 30 28 27
67 68 69 71 73 73 75 78 81 85 86 89 91 91 89 89 84 81 74 71 70 61 58 51 44 41 38 35 33 33 32 31 29 29 30 30 28 28
67 68 70 70 71 74 77 81 83 85 87 88 90 89 88 85 81 74 72 69 62 54 49 43 38 36 35 32 31 32 30 29 29 29 28 27 27 27
68 69 69 70 74 78 81 84 86 87 87 89 90 88 85 79 73 69 66 58 51 44 40 39 37 34 32 30 29 31 29 27 26 28 27 26 24 26
69 69 71 74 78 83 86 86 87 86 86 86 86 84 78 72 68 63 54 47 44 35 35 38 35 32 30 28 29 29 28 26 25 27 27 26 24 24
68 71 75 79 82 85 87 89 88 86 87 86 82 75 71 65 61 51 46 47 43 35 33 39 36 31 28 27 28 28 26 25 26 25 26 25 24 24
72 76 79 82 84 85 88 89 88 88 86 83 76 67 63 60 52 41 40 42 41 37 45 45 38 30 28 24 26 27 26 25 25 26 24 24 24 25
76 79 82 84 86 88 88 87 86 87 84 77 67 62 58 53 43 38 35 36 33 36 40 43 37 28 27 25 24 25 25 24 25 24 23 23 24 25
81 85 86 87 88 87 85 84 84 83 77 68 61 57 53 47 39 37 36 33 35 36 38 35 28 27 24 24 24 23 22 24 25 23 23 22 23 24
86 88 89 87 86 85 83 82 81 76 70 64 58 54 49 41 36 33 31 35 35 35 32 28 24 24 23 24 22 22 22 22 24 23 21 21 22 22
89 89 88 86 85 82 81 79 76 72 65 59 55 53 46 39 33 30 30 31 31 33 29 25 24 22 22 22 21 21 20 21 22 23 21 19 21 21
89 88 86 85 82 81 78 75 72 67 60 54 53 49 43 37 30 28 27 25 31 32 25 24 23 20 20 20 19 19 20 19 21 22 19 17 20 22
87 85 83 81 80 78 77 75 68 61 56 53 50 43 40 35 31 32 32 30 33 32 26 24 22 20 18 18 18 18 17 17 18 20 18 16 17 20
83 82 81 79 78 78 76 72 65 57 53 51 44 40 37 36 36 37 33 32 33 29 24 23 20 19 18 17 18 17 16 16 16 17 17 16 16 17
81 80 79 79 78 77 73 68 62 56 51 44 40 38 36 36 39 35 31 30 27 23 22 22 19 18 17 16 17 17 15 15 15 16 16 15 16 16
81 80 79 78 77 74 69 63 57 51 44 39 37 35 35 36 38 38 34 33 25 23 20 20 18 18 17 17 17 16 15 14 14 15 15 14 14 15
82 81 79 77 73 69 64 57 51 44 40 36 33 32 32 29 31 29 27 24 23 21 20 19 18 18 17 16 16 16 14 14 13 13 14 14 13 13
Wind_Direction
300 296 293 297 296 306 297 299 301 304 305 307 308 311 311 310 310 310 310 310 309 307 306 307 305 302 299 298 296 297 298 294 290 285 281 277 272 267
291 280 289 294 300 301 303 304 304 303 303 307 308 310 310 309 308 309 309 310 309 308 309 307 302 298 296 298 297 298 296 293 291 287 283 279 276 271
288 292 288 293 297 300 301 302 302 302 305 306 308 310 310 308 308 309 309 309 308 309 307 303 299 296 295 297 296 295 293 293 290 286 284 283 277 271
294 296 295 295 296 299 301 302 304 305 305 307 310 310 309 308 308 308 308 308 309 309 306 304 300 296 297 296 294 292 291 290 288 286 286 282 275 271
298 298 298 299 301 302 303 304 304 305 308 310 310 310 310 310 309 308 308 307 310 307 306 304 302 297 296 294 291 291 291 290 286 286 285 282 277 270
301 302 302 302 303 304 304 305 306 307 308 309 310 311 311 310 309 308 307 309 308 308 307 306 304 297 296 292 287 287 287 287 289 289 285 284 278 269
302 303 303 304 303 303 304 305 307 309 310 309 310 310 311 310 309 307 306 307 308 308 305 305 300 295 292 287 284 284 284 282 285 288 285 282 276 268
304 305 304 304 304 305 305 307 309 311 311 310 310 310 311 310 309 307 307 306 306 306 302 301 296 293 289 285 284 284 285 285 286 287 286 281 274 266
304 304 304 305 305 305 308 310 311 311 311 310 310 312 310 310 308 306 303 301 302 302 297 296 294 290 285 282 281 282 285 288 294 292 287 279 274 268
304 304 304 304 306 307 309 311 311 311 310 310 311 311 309 307 306 302 299 298 299 299 296 298 295 290 283 280 279 280 283 287 292 295 289 281 272 266
304 304 305 306 308 309 310 309 310 310 311 311 310 310 308 306 304 299 297 294 296 296 302 300 298 291 282 277 276 279 281 285 292 298 291 282 272 264
304 304 305 307 308 309 309 309 310 311 311 311 309 308 306 304 302 295 288 290 287 290 300 303 300 289 279 275 277 276 280 286 291 298 291 280 273 269
304 305 306 308 309 308 309 311 311 311 311 311 311 308 307 304 300 287 280 281 282 286 291 301 297 285 279 271 275 276 279 284 290 297 293 279 273 270
305 305 306 307 308 310 310 311 310 311 311 312 310 310 309 306 297 285 278 272 279 282 288 294 290 280 276 276 275 274 279 284 290 297 294 278 274 273
305 306 307 308 309 310 310 311 310 310 311 310 310 312 310 306 294 284 278 278 279 284 287 284 279 276 272 275 275 274 279 285 292 297 294 276 275 279
305 306 306 307 309 310 310 309 310 311 311 310 310 313 308 304 296 284 274 273 280 283 283 282 272 269 269 275 276 275 281 285 292 299 293 277 281 287
304 305 306 308 309 309 309 309 311 312 310 306 308 310 305 299 294 284 277 273 277 286 286 273 269 264 268 274 275 276 280 288 294 299 293 280 286 291
305 305 307 309 309 309 309 310 311 310 307 303 306 305 299 294 287 281 278 281 285 286 280 268 263 253 265 275 276 278 282 288 293 300 292 277 286 293
305 307 308 309 309 309 310 310 311 308 304 302 303 296 289 285 272 272 277 281 284 281 275 263 258 253 260 266 269 272 279 288 294 303 293 279 286 292
308 309 310 309 309 309 309 310 309 306 302 300 295 286 279 272 265 267 273 281 280 273 261 256 250 253 261 265 269 274 281 287 293 304 302 284 288 296
309 309 309 308 309 309 309 309 307 304 300 295 287 279 273 268 263 267 271 273 278 262 248 246 243 251 261 265 268 274 277 282 290 303 309 294 291 302
308 308 308 308 308 308 308 307 305 302 298 290 283 274 269 263 260 267 271 277 264 252 246 238 238 250 260 265 268 270 271 278 285 299 309 308 294 305
307 307 308 308 308 307 306 305 303 299 294 287 278 269 264 258 263 262 262 260 249 245 236 235 238 249 260 263 264 264 265 273 278 291 305 318 308 304
Height
5696 5690 5685 5680 5675 5668 5663 5656 5647 5643 5638 5631 5620 5608 5598 5586 5578 5573 5565 5558 5550 5539 5527 5515 5503 5493 5486 5482 5475 5467 5460 5454 5449 5446 5444 5443 5442 5442
5684 5679 5674 5669 5662 5655 5648 5640 5632 5625 5622 5612 5605 5594 5583 5572 5560 5549 5541 5534 5523 5512 5502 5493 5483 5477 5468 5464 5456 5449 5443 5439 5435 5432 5429 5427 5427 5426
5675 5670 5664 5656 5649 5641 5633 5625 5617 5608 5602 5600 5589 5579 5567 5554 5542 5530 5520 5511 5502 5492 5483 5475 5466 5459 5453 5447 5438 5433 5428 5425 5422 5418 5416 5414 5413 5412
5662 5656 5650 5642 5635 5628 5619 5610 5601 5591 5582 5580 5572 5561 5550 5537 5524 5512 5501 5490 5479 5473 5464 5455 5449 5440 5434 5430 5423 5418 5415 5412 5409 5406 5404 5402 5401 5400
5649 5643 5636 5627 5619 5611 5603 5595 5586 5576 5565 5555 5553 5542 5529 5515 5501 5489 5477 5468 5461 5452 5446 5437 5431 5424 5419 5414 5408 5405 5403 5400 5398 5395 5392 5391 5390 5390
5634 5627 5619 5612 5603 5595 5587 5577 5568 5560 5550 5538 5527 5520 5509 5497 5480 5467 5456 5448 5442 5432 5426 5419 5413 5407 5405 5400 5397 5395 5393 5390 5386 5384 5382 5380 5380 5380
5619 5612 5603 5595 5588 5580 5572 5564 5553 5542 5530 5517 5508 5497 5488 5474 5460 5448 5434 5429 5424 5415 5407 5404 5399 5394 5391 5388 5386 5385 5383 5381 5378 5374 5372 5371 5371 5372
5604 5596 5587 5579 5570 5562 5554 5546 5536 5523 5513 5499 5490 5478 5470 5455 5443 5429 5419 5410 5404 5403 5391 5389 5384 5382 5379 5377 5376 5374 5373 5371 5369 5366 5364 5362 5362 5364
5589 5581 5573 5563 5553 5545 5537 5528 5517 5504 5490 5478 5466 5458 5444 5435 5425 5414 5403 5395 5390 5386 5379 5377 5373 5370 5368 5367 5366 5364 5363 5362 5359 5357 5355 5354 5354 5355
5572 5564 5556 5547 5536 5526 5518 5510 5500 5487 5473 5459 5445 5436 5424 5414 5405 5396 5388 5382 5377 5372 5366 5364 5363 5360 5358 5358 5357 5355 5355 5354 5352 5349 5346 5345 5346 5347
5557 5548 5539 5529 5518 5506 5497 5489 5482 5470 5456 5442 5425 5411 5401 5394 5385 5375 5372 5366 5365 5363 5357 5352 5353 5351 5350 5349 5348 5347 5346 5346 5344 5341 5338 5337 5338 5339
5540 5531 5522 5511 5501 5488 5475 5465 5457 5447 5436 5426 5413 5397 5385 5378 5369 5359 5357 5354 5353 5353 5348 5344 5343 5341 5341 5340 5340 5339 5338 5338 5336 5334 5330 5329 5329 5330
5523 5514 5504 5493 5482 5470 5456 5443 5432 5423 5415 5401 5391 5381 5370 5359 5354 5349 5346 5343 5341 5341 5338 5334 5334 5332 5331 5333 5332 5331 5330 5330 5329 5326 5323 5321 5321 5322
5505 5495 5485 5474 5463 5450 5437 5424 5412 5400 5390 5382 5372 5363 5353 5344 5338 5336 5333 5332 5331 5330 5328 5325 5324 5323 5323 5324 5324 5323 5322 5322 5321 5319 5316 5315 5314 5314
5485 5476 5464 5453 5442 5431 5418 5404 5393 5382 5371 5363 5356 5347 5337 5331 5326 5323 5323 5322 5321 5321 5320 5317 5315 5315 5315 5316 5316 5316 5316 5315 5313 5312 5309 5308 5307 5306
5464 5453 5443 5432 5420 5409 5399 5388 5375 5363 5352 5344 5338 5332 5324 5319 5315 5312 5311 5311 5312 5312 5309 5307 5307 5308 5308 5308 5308 5309 5308 5308 5306 5304 5302 5300 5299 5298
5442 5431 5421 5410 5400 5390 5380 5367 5356 5346 5337 5328 5323 5318 5312 5308 5304 5303 5303 5303 5302 5301 5300 5299 5300 5300 5301 5301 5301 5302 5301 5301 5299 5297 5295 5294 5292 5291
5419 5408 5398 5386 5377 5367 5358 5350 5339 5329 5320 5314 5309 5304 5300 5297 5294 5292 5292 5293 5293 5292 5292 5292 5293 5294 5295 5295 5295 5295 5294 5294 5292 5290 5289 5288 5286 5284
5395 5384 5374 5364 5354 5344 5335 5327 5321 5312 5304 5298 5295 5290 5286 5285 5285 5283 5283 5284 5284 5283 5283 5284 5285 5287 5289 5289 5289 5289 5289 5288 5287 5285 5283 5282 5281 5278
5370 5359 5349 5340 5331 5323 5314 5307 5300 5294 5288 5283 5278 5277 5274 5273 5274 5274 5274 5274 5273 5273 5274 5276 5278 5280 5282 5283 5282 5283 5283 5282 5282 5280 5277 5276 5275 5273
5348 5339 5329 5319 5310 5301 5294 5286 5280 5275 5270 5266 5263 5262 5261 5261 5262 5263 5264 5264 5264 5264 5267 5269 5272 5274 5275 5277 5277 5277 5278 5277 5276 5275 5273 5271 5269 5268
5326 5317 5308 5299 5290 5281 5274 5267 5261 5256 5252 5249 5248 5248 5248 5249 5251 5252 5254 5255 5255 5257 5260 5262 5266 5268 5270 5271 5271 5271 5272 5272 5271 5270 5268 5267 5265 5263
5304 5295 5287 5278 5269 5262 5254 5248 5243 5239 5236 5234 5234 5234 5235 5237 5239 5242 5244 5245 5248 5251 5254 5257 5260 5262 5264 5265 5265 5266 5267 5267 5267 5266 5265 5262 5261 5260